Milford, UT

7:46 AM MDT on March 27, 2017 (GMT -0600)
Milford Municipal

Weather History for KMLF - January, 2014

Change the Weather History Date:

Sunday, January 26, 2014

  Actual Average Record
Temperature  
Mean Temperature 30 °F -  
Max Temperature 51 °F 41 °F 55 °F (1998)
Min Temperature 8 °F 19 °F -4 °F (2007)
Degree Days  
Heating Degree Days 36    
Moisture  
Dew Point 9 °F    
Average Humidity 50    
Maximum Humidity 87    
Minimum Humidity 9    
Precipitation  
Precipitation 0.00 in - - ()
Sea Level Pressure  
Sea Level Pressure 30.22 in    
Wind  
Wind Speed 7 mph (WNW)    
Max Wind Speed 13 mph    
Max Gust Speed -    
Visibility 10 miles    
Events      
Averages and records for this station are not official NWS values.
T = Trace of Precipitation, MM = Missing Value Source: NWS Daily Summary

Daily Weather History Graph

Daily Weather History Graph

Search for Another Location

Airport or City:

Trip Planner

Search our weather history database for the weather conditions in past years. The results will help you decide how hot, cold, wet, or windy it might be!

Date:

Astronomy

Jan. 26, 2014 Rise Set
Actual Time 7:42 AM MST 5:47 PM MST
Civil Twilight 7:13 AM MST 6:15 PM MST
Nautical Twilight 6:41 AM MST 6:47 PM MST
Astronomical Twilight 6:10 AM MST 7:19 PM MST
Moon 3:23 AM MST (1/26) 1:40 PM MST (1/26)
Length of Visible Light 11h 02m
Length of Day
10h 05m
Waning Crescent, 23% of the Moon is Illuminated
Jan 26
Waning Crescent
Jan 30
New
Feb 6
First Quarter
Feb 14
Full
Feb 22
Last Quarter

Hourly Weather History & Observations

Time (MST) Temp. Windchill Dew Point Humidity Pressure Visibility Wind Dir Wind Speed Gust Speed Precip Events Conditions
12:52 AM 16.0 °F 6.3 °F 6.1 °F 65% 30.30 in 10.0 mi South 6.9 mph - N/A   Clear
1:52 AM 17.1 °F 8.7 °F 3.9 °F 56% 30.27 in 10.0 mi West 5.8 mph - N/A   Clear
2:52 AM 15.1 °F 6.4 °F 3.0 °F 59% 30.26 in 10.0 mi NNW 5.8 mph - N/A   Clear
3:52 AM 12.0 °F - 6.1 °F 77% 30.26 in 10.0 mi Calm Calm - N/A   Clear
4:52 AM 12.0 °F 0.5 °F 3.0 °F 67% 30.28 in 10.0 mi SW 8.1 mph - N/A   Clear
5:52 AM 10.0 °F -0.9 °F 7.0 °F 87% 30.32 in 10.0 mi SSW 6.9 mph - N/A   Clear
6:52 AM 10.9 °F -0.8 °F 6.1 °F 81% 30.34 in 10.0 mi SSW 8.1 mph - N/A   Clear
7:52 AM 10.0 °F -0.9 °F 5.0 °F 80% 30.34 in 10.0 mi SW 6.9 mph - N/A   Clear
8:52 AM 15.1 °F 3.3 °F 8.1 °F 74% 30.34 in 10.0 mi South 9.2 mph - N/A   Clear
9:52 AM 21.9 °F 11.7 °F 12.0 °F 66% 30.33 in 10.0 mi South 9.2 mph - N/A   Clear
10:52 AM 30.9 °F 24.3 °F 14.0 °F 50% 30.29 in 10.0 mi South 6.9 mph - N/A   Clear
11:52 AM 39.0 °F 35.7 °F 12.0 °F 33% 30.23 in 10.0 mi NE 4.6 mph - N/A   Clear
12:52 PM 44.1 °F 41.5 °F 8.1 °F 23% 30.18 in 10.0 mi NNE 4.6 mph - N/A   Clear
1:52 PM 48.0 °F - 8.1 °F 20% 30.12 in 10.0 mi NE 5.8 mph - N/A   Clear
2:52 PM 50.0 °F - 6.1 °F 17% 30.10 in 10.0 mi NNE 9.2 mph - N/A   Clear
3:52 PM 51.1 °F - 10.0 °F 19% 30.09 in 10.0 mi North 10.4 mph - N/A   Clear
4:52 PM 48.0 °F - 12.0 °F 24% 30.10 in 10.0 mi North 10.4 mph - N/A   Clear
5:52 PM 36.0 °F 27.5 °F 12.9 °F 39% 30.16 in 10.0 mi North 12.7 mph - N/A   Clear
6:52 PM 30.9 °F 23.5 °F 14.0 °F 50% 30.18 in 10.0 mi North 8.1 mph - N/A   Clear
7:52 PM 24.1 °F 14.4 °F 12.9 °F 62% 30.21 in 10.0 mi NNE 9.2 mph - N/A   Clear
8:52 PM 27.0 °F - 15.1 °F 61% 30.19 in 10.0 mi Calm Calm - N/A   Clear
9:52 PM 21.0 °F 14.6 °F 10.0 °F 63% 30.19 in 10.0 mi WNW 4.6 mph - N/A   Clear
10:52 PM 23.0 °F 15.8 °F 9.0 °F 55% 30.16 in 10.0 mi WSW 5.8 mph - N/A   Clear
11:52 PM 18.0 °F 7.7 °F 8.1 °F 65% 30.13 in 10.0 mi West 8.1 mph - N/A   Clear